Change the Weather History Date:

Wednesday, May 15, 2013

  Actual Average Record
Temperature  
Mean Temperature 63 °F -  
Max Temperature 82 °F 64 °F 96 °F (2001)
Min Temperature 44 °F 41 °F 26 °F (2004)
Degree Days  
Heating Degree Days 2    
Growing Degree Days 13 (Base 50)    
Moisture  
Dew Point 40 °F    
Average Humidity 45    
Maximum Humidity 87    
Minimum Humidity 16    
Precipitation  
Precipitation 0.00 in - - ()
Sea Level Pressure  
Sea Level Pressure 29.83 in    
Wind  
Wind Speed 8 mph (West)    
Max Wind Speed 18 mph    
Max Gust Speed 29 mph    
Visibility 10 miles    
Events      
Averages and records for this station are not official NWS values.
T = Trace of Precipitation, MM = Missing Value Source: NWS Daily Summary

Daily Weather History Graph

Daily Weather History Graph

Search for Another Location

Airport or City:

Trip Planner

Search our weather history database for the weather conditions in past years. The results will help you decide how hot, cold, wet, or windy it might be!

Date:

Astronomy

May. 15, 2013 Rise Set
Actual Time 5:43 AM CDT 8:38 PM CDT
Civil Twilight 5:08 AM CDT 9:13 PM CDT
Nautical Twilight 4:24 AM CDT 9:58 PM CDT
Astronomical Twilight 3:31 AM CDT 10:51 PM CDT
Moon 10:22 AM CDT (5/15) 12:23 AM CDT (5/15)
Length of Visible Light 16h 05m
Length of Day
14h 55m
Waxing Crescent, 27% of the Moon is Illuminated
May 15
Waxing Crescent
May 17
First Quarter
May 24
Full
May 31
Last Quarter
Jun 8
New

Hourly Weather History & Observations

Time (CDT) Temp. Windchill Dew Point Humidity Pressure Visibility Wind Dir Wind Speed Gust Speed Precip Events Conditions
12:11 AM 64.4 °F - 44.6 °F 49% 29.70 in 10.0 mi West 13.8 mph 19.6 mph N/A   Clear
12:31 AM 62.6 °F - 46.4 °F 55% 29.71 in 10.0 mi WNW 18.4 mph 24.2 mph N/A   Clear
12:52 AM 62.6 °F - 44.6 °F 52% 29.73 in 10.0 mi WNW 15.0 mph 28.8 mph N/A   Clear
1:31 AM 60.8 °F - 44.6 °F 55% 29.75 in 10.0 mi WNW 11.5 mph - N/A   Clear
1:52 AM 59.0 °F - 42.8 °F 55% 29.76 in 10.0 mi WNW 11.5 mph 19.6 mph N/A   Clear
2:11 AM 57.2 °F - 42.8 °F 59% 29.78 in 10.0 mi WNW 10.4 mph - N/A   Clear
2:31 AM 57.2 °F - 42.8 °F 59% 29.78 in 10.0 mi NW 9.2 mph - N/A   Clear
2:52 AM 55.4 °F - 42.8 °F 63% 29.79 in 10.0 mi WNW 5.8 mph - N/A   Clear
3:11 AM 53.6 °F - 42.8 °F 67% 29.79 in 10.0 mi WNW 6.9 mph - N/A   Clear
3:31 AM 53.6 °F - 42.8 °F 67% 29.80 in 10.0 mi WNW 4.6 mph - N/A   Clear
3:52 AM 51.8 °F - 42.8 °F 71% 29.81 in 10.0 mi West 3.5 mph - N/A   Clear
4:11 AM 50.0 °F - 42.8 °F 76% 29.81 in 10.0 mi Calm Calm - N/A   Clear
4:31 AM 46.4 °F - 41.0 °F 81% 29.81 in 10.0 mi Calm Calm - N/A   Clear
4:52 AM 44.6 °F 43.1 °F 39.2 °F 81% 29.82 in 10.0 mi West 3.5 mph - N/A   Clear
5:11 AM 44.6 °F 43.1 °F 39.2 °F 81% 29.81 in 10.0 mi West 3.5 mph - N/A   Clear
5:31 AM 46.4 °F - 41.0 °F 81% 29.81 in 10.0 mi Calm Calm - N/A   Clear
5:52 AM 44.6 °F 43.1 °F 41.0 °F 87% 29.84 in 10.0 mi SW 3.5 mph - N/A   Clear
6:11 AM 46.4 °F 43.5 °F 42.8 °F 87% 29.87 in 10.0 mi SW 5.8 mph - N/A   Clear
6:31 AM 48.2 °F - 42.8 °F 82% 29.88 in 10.0 mi WSW 4.6 mph - N/A   Clear
6:52 AM 51.8 °F - 42.8 °F 71% 29.89 in 10.0 mi WSW 3.5 mph - N/A   Clear
7:11 AM 53.6 °F - 44.6 °F 72% 29.90 in 10.0 mi West 4.6 mph - N/A   Clear
7:31 AM 55.4 °F - 44.6 °F 67% 29.91 in 10.0 mi West 6.9 mph - N/A   Clear
7:52 AM 57.2 °F - 44.6 °F 63% 29.91 in 10.0 mi West 5.8 mph - N/A   Clear
8:11 AM 59.0 °F - 44.6 °F 59% 29.91 in 10.0 mi West 4.6 mph - N/A   Clear
8:31 AM 62.6 °F - 44.6 °F 52% 29.91 in 10.0 mi WNW 3.5 mph - N/A   Clear
8:52 AM 62.6 °F - 44.6 °F 52% 29.91 in 10.0 mi West 4.6 mph - N/A   Clear
9:11 AM 64.4 °F - 42.8 °F 45% 29.91 in 10.0 mi WSW 4.6 mph - N/A   Clear
9:31 AM 64.4 °F - 42.8 °F 45% 29.91 in 10.0 mi West 3.5 mph - N/A   Clear
9:52 AM 64.4 °F - 41.0 °F 42% 29.90 in 10.0 mi WSW 5.8 mph - N/A   Clear
10:11 AM 66.2 °F - 41.0 °F 40% 29.89 in 10.0 mi WNW 3.5 mph - N/A   Clear
10:31 AM 69.8 °F - 39.2 °F 33% 29.89 in 10.0 mi NW 5.8 mph - N/A   Clear
10:52 AM 69.8 °F - 39.2 °F 33% 29.88 in 10.0 mi Calm Calm - N/A   Clear
11:11 AM 71.6 °F - 37.4 °F 29% 29.88 in 10.0 mi West 3.5 mph - N/A   Clear
11:31 AM 73.4 °F - 37.4 °F 27% 29.88 in 10.0 mi West 9.2 mph - N/A   Clear
11:51 AM 73.4 °F - 39.2 °F 29% 29.88 in 10.0 mi SW 9.2 mph - N/A   Clear
12:11 PM 75.2 °F - 39.2 °F 27% 29.87 in 10.0 mi WSW 8.1 mph - N/A   Clear
12:51 PM 77.0 °F - 39.2 °F 26% 29.85 in 10.0 mi West 9.2 mph - N/A   Clear
1:11 PM 78.8 °F - 39.2 °F 24% 29.85 in 10.0 mi West 9.2 mph 20.7 mph N/A   Clear
1:31 PM 78.8 °F - 37.4 °F 23% 29.84 in 10.0 mi WSW 10.4 mph 19.6 mph N/A   Scattered Clouds
1:51 PM 78.8 °F - 37.4 °F 23% 29.84 in 10.0 mi West 11.5 mph - N/A   Scattered Clouds
2:11 PM 78.8 °F - 37.4 °F 23% 29.83 in 10.0 mi West 13.8 mph 20.7 mph N/A   Scattered Clouds
2:31 PM 80.6 °F - 37.4 °F 21% 29.82 in 10.0 mi WSW 16.1 mph 21.9 mph N/A   Scattered Clouds
2:51 PM 78.8 °F - 37.4 °F 23% 29.82 in 10.0 mi West 10.4 mph 19.6 mph N/A   Mostly Cloudy
3:11 PM 77.0 °F - 35.6 °F 22% 29.82 in 10.0 mi NW 11.5 mph - N/A   Mostly Cloudy
3:31 PM 80.6 °F - 35.6 °F 20% 29.81 in 10.0 mi West 11.5 mph 17.3 mph N/A   Scattered Clouds
3:51 PM 78.8 °F - 35.6 °F 21% 29.81 in 10.0 mi WNW 15.0 mph 18.4 mph N/A   Scattered Clouds
4:31 PM 80.6 °F - 35.6 °F 20% 29.80 in 10.0 mi WSW 10.4 mph 16.1 mph N/A   Clear
4:51 PM 80.6 °F - 33.8 °F 18% 29.80 in 10.0 mi WNW 8.1 mph 19.6 mph N/A   Scattered Clouds
5:11 PM 82.4 °F - 33.8 °F 17% 29.80 in 10.0 mi WNW 10.4 mph 19.6 mph N/A   Scattered Clouds
5:31 PM 80.6 °F - 32.0 °F 17% 29.80 in 10.0 mi West 13.8 mph 19.6 mph N/A   Scattered Clouds
5:51 PM 80.6 °F - 30.2 °F 16% 29.80 in 10.0 mi West 13.8 mph 23.0 mph N/A   Clear
6:11 PM 80.6 °F - 33.8 °F 18% 29.80 in 10.0 mi WNW 10.4 mph 17.3 mph N/A   Clear
6:32 PM 78.8 °F - 33.8 °F 20% 29.79 in 10.0 mi WNW 6.9 mph - N/A   Clear
6:51 PM 78.8 °F - 35.6 °F 21% 29.79 in 10.0 mi West 9.2 mph - N/A   Clear
7:11 PM 77.0 °F - 35.6 °F 22% 29.79 in 10.0 mi West 8.1 mph - N/A   Clear
7:32 PM 75.2 °F - 35.6 °F 24% 29.79 in 10.0 mi West 4.6 mph - N/A   Clear
7:51 PM 75.2 °F - 35.6 °F 24% 29.79 in 10.0 mi Calm Calm - N/A   Clear
8:11 PM 75.2 °F - 35.6 °F 24% 29.79 in 10.0 mi Calm Calm - N/A   Clear
8:32 PM 69.8 °F - 37.4 °F 31% 29.79 in 10.0 mi Calm Calm - N/A   Clear
8:51 PM 66.2 °F - 39.2 °F 37% 29.80 in 10.0 mi Calm Calm - N/A   Clear
9:11 PM 62.6 °F - 41.0 °F 45% 29.80 in 10.0 mi Calm Calm - N/A   Clear
9:32 PM 62.6 °F - 39.2 °F 42% 29.80 in 10.0 mi Calm Calm - N/A   Clear
9:51 PM 62.6 °F - 39.2 °F 42% 29.80 in 10.0 mi Calm Calm - N/A   Clear
10:11 PM 57.2 °F - 39.2 °F 51% 29.81 in 10.0 mi Calm Calm - N/A   Clear
10:32 PM 59.0 °F - 41.0 °F 51% 29.81 in 10.0 mi SSW 3.5 mph - N/A   Scattered Clouds
10:51 PM 57.2 °F - 41.0 °F 55% 29.81 in 10.0 mi Calm Calm - N/A   Mostly Cloudy
11:11 PM 57.2 °F - 41.0 °F 55% 29.81 in 10.0 mi Calm Calm - N/A   Scattered Clouds
11:32 PM 55.4 °F - 41.0 °F 58% 29.81 in 10.0 mi Calm Calm - N/A   Clear
11:51 PM 55.4 °F - 42.8 °F 63% 29.82 in 10.0 mi Calm Calm - N/A   Clear